Weather History for Chandler, OK

Change the Weather History Date:

Monday, November 25, 2013

  Actual Average (KCUH) Record (KCUH)
Temperature  
Mean Temperature 34 °F -  
Max Temperature 35 °F 56 °F 80 °F (1990)
Min Temperature 32 °F 34 °F 16 °F (1993)
Degree Days  
Heating Degree Days 32    
Moisture  
Dew Point 32 °F    
Average Humidity 91    
Maximum Humidity 100    
Minimum Humidity 80    
Precipitation  
Precipitation 0.00 in - - ()
Sea Level Pressure  
Sea Level Pressure 30.25 in    
Wind  
Wind Speed 5 mph (SSW)    
Max Wind Speed 8 mph    
Max Gust Speed -    
Visibility 10 miles    
Events      
Averages and records for this station are not official NWS values.
T = Trace of Precipitation, MM = Missing Value Source: NWS Daily Summary

Daily Weather History Graph

Daily Weather History Graph

Search for Another Location

Airport:

Trip Planner

Search our weather history database for the weather conditions in past years. The results will help you decide how hot, cold, wet, or windy it might be!

Date:

Astronomy

Nov. 25, 2013 Rise Set
Actual Time 7:13 AM CST 5:15 PM CST
Civil Twilight 6:45 AM CST 5:42 PM CST
Nautical Twilight 6:14 AM CST 6:14 PM CST
Astronomical Twilight 5:43 AM CST 6:44 PM CST
Moon No Moon Rise 12:38 PM CST (11/25)
Length of Visible Light 10h 57m
Length of Day
10h 01m
Waning Gibbous, 51% of the Moon is Illuminated
Nov 25
Waning Gibbous
Nov 25
Last Quarter
Dec 2
New
Dec 9
First Quarter
Dec 17
Full

Hourly Weather History & Observations

Time (CST) Temp. Windchill Dew Point Humidity Pressure Visibility Wind Dir Wind Speed Gust Speed Precip Events Conditions
12:15 AM 32.0 °F 27.5 °F 26.6 °F 80% 30.33 in 10.0 mi South 4.6 mph - N/A   Overcast
12:35 AM 32.0 °F 27.5 °F 26.6 °F 80% 30.33 in 10.0 mi South 4.6 mph - N/A   Overcast
12:55 AM 32.0 °F 27.5 °F 26.6 °F 80% 30.32 in 10.0 mi South 4.6 mph - N/A   Overcast
1:15 AM 32.0 °F 28.7 °F 26.6 °F 80% 30.30 in 10.0 mi South 3.5 mph - N/A   Overcast
1:35 AM 32.0 °F 27.5 °F 26.6 °F 80% 30.31 in 10.0 mi South 4.6 mph - N/A   Overcast
1:55 AM 32.0 °F 25.6 °F 28.4 °F 87% 30.31 in 10.0 mi South 6.9 mph - N/A   Overcast
2:15 AM 32.0 °F 26.4 °F 28.4 °F 87% 30.30 in 10.0 mi SSW 5.8 mph - N/A   Overcast
2:35 AM 32.0 °F 28.7 °F 28.4 °F 87% 30.31 in 10.0 mi South 3.5 mph - N/A   Overcast
2:55 AM 32.0 °F 26.4 °F 28.4 °F 87% 30.28 in 10.0 mi SSE 5.8 mph - N/A   Overcast
3:15 AM 32.0 °F 27.5 °F 28.4 °F 87% 30.29 in 10.0 mi South 4.6 mph - N/A   Overcast
3:35 AM 32.0 °F 28.7 °F 30.2 °F 93% 30.29 in 10.0 mi South 3.5 mph - N/A   Overcast
3:55 AM 32.0 °F 26.4 °F 30.2 °F 93% 30.27 in 10.0 mi SSE 5.8 mph - N/A   Overcast
4:15 AM 32.0 °F 27.5 °F 30.2 °F 93% 30.28 in 10.0 mi South 4.6 mph - N/A   Overcast
4:35 AM 32.0 °F 27.5 °F 30.2 °F 93% 30.27 in 10.0 mi South 4.6 mph - N/A   Overcast
4:55 AM 32.0 °F 26.4 °F 30.2 °F 93% 30.27 in 10.0 mi SSE 5.8 mph - N/A   Overcast
5:15 AM 32.0 °F 26.4 °F 30.2 °F 93% 30.27 in 10.0 mi South 5.8 mph - N/A   Overcast
5:35 AM 32.0 °F 25.6 °F 30.2 °F 93% 30.27 in 10.0 mi South 6.9 mph - N/A   Overcast
5:55 AM 32.0 °F 26.4 °F 30.2 °F 93% 30.27 in 10.0 mi SSE 5.8 mph - N/A   Overcast
6:15 AM 32.0 °F 25.6 °F 30.2 °F 93% 30.25 in 10.0 mi SSE 6.9 mph - N/A   Overcast
6:35 AM 32.0 °F 25.6 °F 30.2 °F 93% 30.25 in 10.0 mi South 6.9 mph - N/A   Overcast
6:55 AM 32.0 °F 26.4 °F 30.2 °F 93% 30.24 in 10.0 mi SSE 5.8 mph - N/A   Overcast
7:15 AM 32.0 °F 25.6 °F 30.2 °F 93% 30.24 in 10.0 mi South 6.9 mph - N/A   Overcast
7:35 AM 32.0 °F 25.6 °F 30.2 °F 93% 30.25 in 10.0 mi South 6.9 mph - N/A   Overcast
7:55 AM 32.0 °F 24.8 °F 30.2 °F 93% 30.25 in 10.0 mi South 8.1 mph - N/A   Overcast
8:15 AM 32.0 °F 24.8 °F 30.2 °F 93% 30.25 in 10.0 mi SSE 8.1 mph - N/A   Overcast
8:35 AM 32.0 °F 25.6 °F 32.0 °F 100% 30.25 in 10.0 mi South 6.9 mph - N/A   Overcast
8:55 AM 33.8 °F 27.0 °F 32.0 °F 93% 30.26 in 10.0 mi South 8.1 mph - N/A   Overcast
9:15 AM 33.8 °F 27.0 °F 32.0 °F 93% 30.26 in 10.0 mi South 8.1 mph - N/A   Overcast
9:35 AM 33.8 °F 27.7 °F 32.0 °F 93% 30.27 in 10.0 mi South 6.9 mph - N/A   Overcast
9:55 AM 33.8 °F 27.7 °F 32.0 °F 93% 30.27 in 10.0 mi South 6.9 mph - N/A   Overcast
10:15 AM 33.8 °F 28.6 °F 32.0 °F 93% 30.27 in 10.0 mi South 5.8 mph - N/A   Overcast
10:35 AM 33.8 °F 28.6 °F 32.0 °F 93% 30.27 in 10.0 mi South 5.8 mph - N/A   Overcast
10:55 AM 33.8 °F 29.6 °F 32.0 °F 93% 30.26 in 10.0 mi SSW 4.6 mph - N/A   Overcast
11:15 AM 33.8 °F 28.6 °F 32.0 °F 93% 30.25 in 10.0 mi SSW 5.8 mph - N/A   Overcast
11:35 AM 35.6 °F 31.7 °F 32.0 °F 87% 30.25 in 10.0 mi South 4.6 mph - N/A   Overcast
11:55 AM 33.8 °F - 32.0 °F 93% 30.25 in 10.0 mi Calm Calm - N/A   Overcast
12:15 PM 33.8 °F 29.6 °F 32.0 °F 93% 30.24 in 10.0 mi West 4.6 mph - N/A   Overcast
12:35 PM 33.8 °F - 32.0 °F 93% 30.23 in 10.0 mi Calm Calm - N/A   Overcast
12:55 PM 33.8 °F - 32.0 °F 93% 30.23 in 10.0 mi Calm Calm - N/A   Overcast
1:15 PM 35.6 °F 32.8 °F 32.0 °F 87% 30.22 in 10.0 mi North 3.5 mph - N/A   Overcast
1:35 PM 35.6 °F 32.8 °F 32.0 °F 87% 30.22 in 5.0 mi NW 3.5 mph - N/A   Overcast
1:55 PM 35.6 °F - 32.0 °F 87% 30.21 in 5.0 mi Calm Calm - N/A   Overcast
2:15 PM 35.6 °F - 32.0 °F 87% 30.20 in 7.0 mi Calm Calm - N/A   Overcast
2:35 PM 35.6 °F - 32.0 °F 87% 30.20 in 10.0 mi Calm Calm - N/A   Overcast
2:55 PM 35.6 °F 32.8 °F 32.0 °F 87% 30.20 in 10.0 mi NNW 3.5 mph - N/A   Overcast
3:15 PM 35.6 °F 32.8 °F 32.0 °F 87% 30.20 in 10.0 mi NW 3.5 mph - N/A   Overcast
3:35 PM 35.6 °F - 32.0 °F 87% 30.21 in 10.0 mi Calm Calm - N/A   Overcast
3:55 PM 35.6 °F - 32.0 °F 87% 30.20 in 10.0 mi Calm Calm - N/A   Overcast
4:15 PM 35.6 °F - 32.0 °F 87% 30.21 in 10.0 mi Calm Calm - N/A   Overcast
4:35 PM 35.6 °F 32.8 °F 32.0 °F 87% 30.22 in 10.0 mi NNW 3.5 mph - N/A   Overcast
4:55 PM 35.6 °F 30.7 °F 33.8 °F 93% 30.22 in 10.0 mi NNW 5.8 mph - N/A   Overcast
5:15 PM 35.6 °F 31.7 °F 33.8 °F 93% 30.22 in 10.0 mi North 4.6 mph - N/A   Overcast
5:35 PM 35.6 °F 31.7 °F 33.8 °F 93% 30.22 in 10.0 mi North 4.6 mph - N/A   Overcast
5:55 PM 35.6 °F - 33.8 °F 93% 30.22 in 10.0 mi Calm Calm - N/A   Overcast
6:15 PM 35.6 °F 29.9 °F 33.8 °F 93% 30.22 in 10.0 mi NNW 6.9 mph - N/A   Overcast
6:35 PM 35.6 °F 31.7 °F 33.8 °F 93% 30.22 in 10.0 mi North 4.6 mph - N/A   Overcast
6:55 PM 35.6 °F 30.7 °F 33.8 °F 93% 30.22 in 10.0 mi North 5.8 mph - N/A   Overcast
7:15 PM 35.6 °F 31.7 °F 33.8 °F 93% 30.23 in 10.0 mi North 4.6 mph - N/A   Overcast
7:35 PM 35.6 °F 31.7 °F 33.8 °F 93% 30.22 in 10.0 mi North 4.6 mph - N/A   Overcast
7:55 PM 35.6 °F 29.9 °F 33.8 °F 93% 30.22 in 10.0 mi North 6.9 mph - N/A   Overcast
8:15 PM 35.6 °F 30.7 °F 33.8 °F 93% 30.22 in 10.0 mi North 5.8 mph - N/A   Overcast
8:35 PM 35.6 °F 29.9 °F 33.8 °F 93% 30.22 in 10.0 mi North 6.9 mph - N/A   Overcast
8:55 PM 35.6 °F 31.7 °F 33.8 °F 93% 30.22 in 10.0 mi NNW 4.6 mph - N/A   Overcast
9:15 PM 35.6 °F 31.7 °F 33.8 °F 93% 30.22 in 10.0 mi NNW 4.6 mph - N/A   Overcast
9:35 PM 35.6 °F 30.7 °F 33.8 °F 93% 30.22 in 10.0 mi NNW 5.8 mph - N/A   Overcast
9:55 PM 35.6 °F 30.7 °F 33.8 °F 93% 30.22 in 10.0 mi North 5.8 mph - N/A   Overcast
10:15 PM 35.6 °F 30.7 °F 33.8 °F 93% 30.22 in 10.0 mi NNW 5.8 mph - N/A   Overcast
10:35 PM 35.6 °F 30.7 °F 33.8 °F 93% 30.22 in 10.0 mi North 5.8 mph - N/A   Overcast
10:55 PM 35.6 °F 29.9 °F 33.8 °F 93% 30.22 in 10.0 mi North 6.9 mph - N/A   Overcast
11:15 PM 35.6 °F 31.7 °F 33.8 °F 93% 30.22 in 10.0 mi North 4.6 mph - N/A   Overcast
11:35 PM 35.6 °F 31.7 °F 33.8 °F 93% 30.23 in 10.0 mi NNW 4.6 mph - N/A   Overcast
11:55 PM 35.6 °F 30.7 °F 33.8 °F 93% 30.23 in 10.0 mi NNW 5.8 mph - N/A   Overcast